Location: Moena
(46.3667°N, 11.6500°E)
Time: 18:29:25
(UTC+00:00)

SL-4 R/B - Pass Details

Date: 03 March 2021
Orbit: 428 x 663 km, 51.6° (Epoch: 15 April)

Event Time Altitude Azimuth Distance (km) Brightness Sun altitude
Rises 19:51:45 0° 296° (WNW) 2,440 6.5 -29.4°
Reaches altitude 10° 19:53:55 10° 293° (WNW) 1,548 5.2 -29.7°
Enters shadow 19:54:49 17° 291° (WNW) 1,182 4.5 -29.9°
